{"data":{"norad_id":58838,"epoch":"2026-09-20T22:52:01.818912Z","epoch_age_seconds":113401,"freshness":"FRESH","line1":"1 58838U 24017N   26263.95279883 -.00001740  00000+0 -40429-4 0  9992","line2":"2 58838  53.1626  15.8013 0000956  89.7264 270.3848 15.34373578149979","mean_motion":15.34373578,"eccentricity":9.56e-5,"inclination_deg":53.1626,"raan_deg":15.8013,"arg_perigee_deg":89.7264,"mean_anomaly_deg":270.3848,"bstar":-4.0429e-5,"rev_number":14997,"period_min":93.849374145049,"perigee_km":462.12778125151,"apogee_km":463.43576492093,"semimajor_km":6840.9187730862,"source":"CELESTRAK","updated_at":"2026-09-21T09:00:33.984820Z"}}